| time (UTC) | temp F | wind direction | speed MPH | gust MPH | rain 1hr in | rain 24hr in | rain mn in | humidity % | barometer mb |
| 20260831231115 | 65 | 215 | 0.0 | 2.0 | 0.00 | 0.05 | 0.01 | 90 | 1017.2 |
| 20260831230345 | 66 | 215 | 0.0 | 2.0 | 0.00 | 0.05 | 0.01 | 89 | 1017.2 |
| 20260831225846 | 66 | 215 | 1.0 | 2.0 | 0.00 | 0.05 | 0.01 | 88 | 1017.2 |
| 20260831225349 | 66 | 215 | 2.0 | 4.0 | 0.00 | 0.05 | 0.01 | 88 | 1017.1 |
| 20260831225113 | 66 | 215 | 2.0 | 4.0 | 0.00 | 0.05 | 0.01 | 89 | 1017.2 |
| 20260831224609 | 66 | 215 | 1.0 | 3.0 | 0.00 | 0.05 | 0.01 | 89 | 1017.2 |
| 20260831223843 | 66 | 214 | 0.0 | 2.0 | 0.00 | 0.05 | 0.01 | 89 | 1017.2 |
| 20260831223343 | 66 | 214 | 0.0 | 1.0 | 0.00 | 0.05 | 0.01 | 88 | 1017.2 |
| 20260831222839 | 67 | 214 | 0.0 | 0.0 | 0.00 | 0.05 | 0.01 | 88 | 1017.4 |
| 20260831222340 | 67 | 214 | 0.0 | 1.0 | 0.00 | 0.05 | 0.01 | 88 | 1017.4 |
| 20260831221834 | 67 | 214 | 0.0 | 1.0 | 0.00 | 0.05 | 0.01 | 86 | 1017.4 |
| 20260831221334 | 67 | 214 | 1.0 | 4.0 | 0.00 | 0.05 | 0.01 | 86 | 1017.4 |
| 20260831220833 | 67 | 214 | 1.0 | 4.0 | 0.00 | 0.05 | 0.01 | 86 | 1017.4 |
| 20260831220334 | 67 | 219 | 2.0 | 4.0 | 0.00 | 0.05 | 0.01 | 86 | 1017.5 |
| 20260831220100 | 67 | 219 | 2.0 | 5.0 | 0.00 | 0.05 | 0.01 | 86 | 1017.5 |
| 20260831215334 | 67 | 222 | 2.0 | 5.0 | 0.00 | 0.05 | 0.01 | 85 | 1017.5 |
| 20260831214834 | 67 | 207 | 3.0 | 6.0 | 0.00 | 0.05 | 0.01 | 85 | 1017.5 |
| 20260831214334 | 67 | 229 | 3.0 | 6.0 | 0.00 | 0.05 | 0.01 | 84 | 1017.6 |
| 20260831213834 | 68 | 196 | 3.0 | 6.0 | 0.00 | 0.05 | 0.01 | 83 | 1017.6 |
| 20260831213333 | 68 | 180 | 3.0 | 5.0 | 0.00 | 0.05 | 0.01 | 83 | 1017.6 |
| 20260831212833 | 68 | 212 | 3.0 | 7.0 | 0.00 | 0.05 | 0.01 | 82 | 1017.5 |
| 20260831212330 | 69 | 181 | 3.0 | 7.0 | 0.00 | 0.05 | 0.01 | 81 | 1017.5 |
| 20260831211830 | 69 | 198 | 4.0 | 7.0 | 0.00 | 0.05 | 0.01 | 81 | 1017.5 |
| 20260831211550 | 69 | 200 | 4.0 | 7.0 | 0.00 | 0.05 | 0.01 | 80 | 1017.5 |
| 20260831210829 | 69 | 229 | 3.0 | 7.0 | 0.00 | 0.05 | 0.01 | 80 | 1017.5 |
| 20260831210330 | 69 | 209 | 3.0 | 7.0 | 0.00 | 0.05 | 0.01 | 80 | 1017.4 |
| 20260831210056 | 69 | 197 | 2.0 | 7.0 | 0.00 | 0.05 | 0.01 | 81 | 1017.5 |
| 20260831205329 | 69 | 212 | 3.0 | 8.0 | 0.00 | 0.05 | 0.01 | 80 | 1017.6 |
| 20260831205052 | 69 | 222 | 3.0 | 10.0 | 0.00 | 0.05 | 0.01 | 77 | 1017.6 |
| 20260831204330 | 70 | 182 | 3.0 | 10.0 | 0.00 | 0.05 | 0.01 | 77 | 1017.5 |
| 20260831203829 | 70 | 223 | 1.0 | 6.0 | 0.00 | 0.05 | 0.01 | 78 | 1017.5 |
| 20260831203329 | 70 | 150 | 0.0 | 2.0 | 0.00 | 0.05 | 0.01 | 78 | 1017.5 |
| 20260831202830 | 70 | 150 | 0.0 | 2.0 | 0.00 | 0.05 | 0.01 | 80 | 1017.5 |
| 20260831202548 | 70 | 150 | 0.0 | 1.0 | 0.00 | 0.05 | 0.01 | 80 | 1017.5 |
| 20260831201829 | 70 | 150 | 1.0 | 3.0 | 0.00 | 0.05 | 0.01 | 75 | 1017.5 |
| 20260831201329 | 70 | 150 | 1.0 | 3.0 | 0.00 | 0.05 | 0.01 | 74 | 1017.5 |
| 20260831200830 | 71 | 150 | 1.0 | 7.0 | 0.00 | 0.05 | 0.01 | 75 | 1017.5 |
| 20260831200328 | 71 | 150 | 1.0 | 7.0 | 0.00 | 0.05 | 0.01 | 72 | 1017.5 |
| 20260831195828 | 72 | 81 | 1.0 | 4.0 | 0.00 | 0.05 | 0.01 | 70 | 1017.5 |
| 20260831195548 | 73 | 82 | 2.0 | 7.0 | 0.00 | 0.05 | 0.01 | 70 | 1017.5 |
| 20260831194827 | 72 | 137 | 1.0 | 7.0 | 0.00 | 0.05 | 0.01 | 72 | 1017.7 |
| 20260831194327 | 71 | 126 | 2.0 | 6.0 | 0.00 | 0.05 | 0.01 | 68 | 1017.7 |
| 20260831193828 | 71 | 115 | 2.0 | 6.0 | 0.00 | 0.05 | 0.01 | 74 | 1017.9 |
| 20260831193550 | 72 | 132 | 2.0 | 5.0 | 0.00 | 0.05 | 0.01 | 67 | 1017.8 |
| 20260831192828 | 73 | 128 | 2.0 | 5.0 | 0.00 | 0.05 | 0.01 | 65 | 1017.8 |
| 20260831192544 | 73 | 346 | 2.0 | 5.0 | 0.00 | 0.05 | 0.01 | 69 | 1018.0 |
| 20260831191825 | 72 | 162 | 2.0 | 5.0 | 0.00 | 0.05 | 0.01 | 71 | 1018.0 |
| 20260831191318 | 71 | 212 | 1.0 | 3.0 | 0.00 | 0.05 | 0.01 | 70 | 1018.0 |
| 20260831190813 | 70 | 213 | 0.0 | 3.0 | 0.00 | 0.05 | 0.01 | 76 | 1018.1 |
| 20260831190310 | 70 | 213 | 1.0 | 3.0 | 0.00 | 0.05 | 0.01 | 76 | 1018.1 |
| 20260831185807 | 69 | 213 | 0.0 | 3.0 | 0.00 | 0.05 | 0.01 | 72 | 1018.2 |
| 20260831185307 | 69 | 230 | 0.0 | 2.0 | 0.00 | 0.05 | 0.01 | 79 | 1018.2 |
| 20260831185035 | 70 | 230 | 0.0 | 2.0 | 0.00 | 0.05 | 0.01 | 79 | 1018.4 |
| 20260831184527 | 69 | 230 | 0.0 | 1.0 | 0.00 | 0.05 | 0.01 | 74 | 1018.2 |
| 20260831183805 | 69 | 230 | 0.0 | 1.0 | 0.00 | 0.05 | 0.01 | 78 | 1018.2 |
| 20260831183306 | 69 | 230 | 1.0 | 5.0 | 0.00 | 0.05 | 0.01 | 77 | 1018.2 |
| 20260831182801 | 69 | 229 | 2.0 | 5.0 | 0.00 | 0.05 | 0.01 | 76 | 1018.2 |
| 20260831182259 | 69 | 242 | 1.0 | 5.0 | 0.00 | 0.05 | 0.01 | 72 | 1018.4 |
| 20260831181759 | 69 | 232 | 1.0 | 7.0 | 0.00 | 0.05 | 0.01 | 75 | 1018.4 |
| 20260831181257 | 69 | 232 | 2.0 | 7.0 | 0.00 | 0.05 | 0.01 | 73 | 1018.2 |
| 20260831180755 | 69 | 232 | 3.0 | 7.0 | 0.00 | 0.05 | 0.01 | 74 | 1018.5 |
| 20260831180255 | 70 | 242 | 2.0 | 7.0 | 0.00 | 0.05 | 0.01 | 72 | 1018.5 |
| 20260831175756 | 69 | 217 | 2.0 | 4.0 | 0.00 | 0.05 | 0.01 | 73 | 1018.7 |
| 20260831175254 | 70 | 196 | 2.0 | 6.0 | 0.00 | 0.05 | 0.01 | 74 | 1018.8 |
| 20260831174755 | 71 | 190 | 3.0 | 7.0 | 0.00 | 0.05 | 0.01 | 70 | 1018.8 |
| 20260831174244 | 71 | 225 | 4.0 | 9.0 | 0.00 | 0.05 | 0.01 | 70 | 1019.0 |
| 20260831174009 | 70 | 191 | 4.0 | 9.0 | 0.00 | 0.05 | 0.01 | 75 | 1018.9 |
| 20260831173232 | 72 | 188 | 3.0 | 9.0 | 0.00 | 0.05 | 0.01 | 71 | 1019.0 |
| 20260831172722 | 72 | 214 | 3.0 | 8.0 | 0.00 | 0.05 | 0.01 | 70 | 1019.0 |
| 20260831172216 | 71 | 197 | 2.0 | 7.0 | 0.00 | 0.05 | 0.01 | 74 | 1018.9 |
| 20260831171710 | 70 | 204 | 2.0 | 7.0 | 0.00 | 0.05 | 0.01 | 73 | 1019.0 |
| 20260831171159 | 71 | 189 | 3.0 | 7.0 | 0.00 | 0.05 | 0.01 | 75 | 1019.1 |
| 20260831170148 | 70 | 131 | 3.0 | 8.0 | 0.00 | 0.05 | 0.01 | 75 | 1019.2 |
| 20260831165638 | 70 | 223 | 3.0 | 8.0 | 0.00 | 0.05 | 0.01 | 75 | 1019.1 |
| 20260831165132 | 70 | 239 | 2.0 | 6.0 | 0.00 | 0.05 | 0.01 | 76 | 1019.1 |
| 20260831164626 | 70 | 200 | 2.0 | 4.0 | 0.00 | 0.05 | 0.01 | 75 | 1019.3 |
| 20260831164116 | 70 | 200 | 3.0 | 7.0 | 0.00 | 0.05 | 0.01 | 73 | 1019.2 |
| 20260831163610 | 69 | 235 | 4.0 | 7.0 | 0.00 | 0.05 | 0.01 | 72 | 1019.3 |
| 20260831163104 | 70 | 227 | 4.0 | 8.0 | 0.00 | 0.05 | 0.01 | 72 | 1019.3 |
| 20260831162823 | 70 | 223 | 2.0 | 8.0 | 0.00 | 0.05 | 0.01 | 74 | 1019.2 |
| 20260831161559 | 69 | 148 | 1.0 | 5.0 | 0.00 | 0.05 | 0.01 | 78 | 1019.4 |
| 20260831161057 | 69 | 190 | 1.0 | 5.0 | 0.00 | 0.05 | 0.01 | 78 | 1019.4 |
| 20260831160557 | 70 | 198 | 2.0 | 6.0 | 0.00 | 0.05 | 0.01 | 78 | 1019.5 |
| 20260831160315 | 69 | 156 | 2.0 | 7.0 | 0.00 | 0.05 | 0.01 | 79 | 1019.6 |
| 20260831155555 | 69 | 218 | 2.0 | 7.0 | 0.00 | 0.05 | 0.01 | 76 | 1019.6 |
| 20260831155053 | 70 | 215 | 3.0 | 8.0 | 0.00 | 0.05 | 0.01 | 80 | 1019.6 |
| 20260831154553 | 69 | 253 | 4.0 | 8.0 | 0.00 | 0.05 | 0.01 | 70 | 1019.6 |
| 20260831154054 | 69 | 192 | 2.0 | 7.0 | 0.00 | 0.05 | 0.01 | 74 | 1019.6 |
| 20260831153815 | 69 | 230 | 1.0 | 4.0 | 0.00 | 0.05 | 0.01 | 81 | 1019.6 |
| 20260831153051 | 67 | 244 | 2.0 | 8.0 | 0.00 | 0.05 | 0.01 | 78 | 1019.7 |
| 20260831152556 | 68 | 240 | 3.0 | 8.0 | 0.00 | 0.05 | 0.01 | 79 | 1019.8 |
| 20260831152049 | 67 | 234 | 2.0 | 6.0 | 0.00 | 0.05 | 0.01 | 79 | 1019.8 |
| 20260831151809 | 67 | 227 | 1.0 | 5.0 | 0.00 | 0.05 | 0.01 | 84 | 1019.7 |
| 20260831151045 | 66 | 247 | 1.0 | 4.0 | 0.00 | 0.05 | 0.01 | 85 | 1019.8 |
| 20260831150259 | 64 | 215 | 1.0 | 4.0 | 0.00 | 0.05 | 0.01 | 88 | 1019.8 |
| 20260831145528 | 65 | 225 | 1.0 | 3.0 | 0.00 | 0.05 | 0.01 | 89 | 1019.7 |
| 20260831144525 | 64 | 242 | 2.0 | 7.0 | 0.00 | 0.05 | 0.01 | 87 | 1019.7 |
| 20260831144029 | 64 | 242 | 2.0 | 6.0 | 0.00 | 0.05 | 0.01 | 90 | 1019.7 |
| 20260831143525 | 63 | 234 | 2.0 | 5.0 | 0.00 | 0.05 | 0.01 | 89 | 1019.7 |
| 20260831143025 | 63 | 250 | 2.0 | 9.0 | 0.00 | 0.05 | 0.01 | 90 | 1019.8 |
| 20260831142525 | 63 | 252 | 2.0 | 9.0 | 0.00 | 0.05 | 0.01 | 90 | 1019.8 |
| 20260831142023 | 63 | 236 | 2.0 | 4.0 | 0.00 | 0.05 | 0.01 | 92 | 1019.8 |
| 20260831141524 | 62 | 246 | 2.0 | 4.0 | 0.00 | 0.05 | 0.01 | 94 | 1019.9 |
| 20260831141253 | 61 | 244 | 2.0 | 4.0 | 0.00 | 0.05 | 0.01 | 96 | 1020.0 |
| 20260831140748 | 62 | 244 | 2.0 | 4.0 | 0.00 | 0.05 | 0.01 | 97 | 1020.0 |
| 20260831140249 | 62 | 234 | 2.0 | 4.0 | 0.00 | 0.05 | 0.01 | 97 | 1019.9 |
| 20260831135520 | 61 | 229 | 1.0 | 3.0 | 0.00 | 0.05 | 0.01 | 98 | 1020.0 |
| 20260831135018 | 60 | 229 | 1.0 | 3.0 | 0.00 | 0.05 | 0.01 | 98 | 1019.9 |
| 20260831134517 | 60 | 234 | 1.0 | 3.0 | 0.00 | 0.05 | 0.01 | 98 | 1019.9 |
| 20260831134015 | 60 | 234 | 1.0 | 3.0 | 0.00 | 0.05 | 0.01 | 98 | 1019.9 |
| 20260831133511 | 59 | 234 | 1.0 | 3.0 | 0.00 | 0.05 | 0.01 | 98 | 1019.9 |
| 20260831133011 | 59 | 234 | 2.0 | 5.0 | 0.00 | 0.05 | 0.01 | 99 | 1019.9 |
| 20260831132732 | 59 | 234 | 3.0 | 5.0 | 0.00 | 0.05 | 0.01 | 99 | 1020.0 |
| 20260831132011 | 58 | 229 | 3.0 | 7.0 | 0.00 | 0.05 | 0.01 | 98 | 1020.0 |
| 20260831131509 | 58 | 238 | 4.0 | 7.0 | 0.00 | 0.05 | 0.01 | 98 | 1020.1 |
| 20260831131009 | 59 | 223 | 4.0 | 7.0 | 0.00 | 0.05 | 0.01 | 98 | 1020.1 |
| 20260831130510 | 58 | 234 | 3.0 | 7.0 | 0.00 | 0.05 | 0.01 | 98 | 1020.0 |
| 20260831130008 | 58 | 218 | 3.0 | 5.0 | 0.00 | 0.05 | 0.01 | 98 | 1020.0 |
| 20260831125507 | 58 | 229 | 2.0 | 4.0 | 0.00 | 0.05 | 0.01 | 99 | 1020.0 |
| 20260831125005 | 59 | 234 | 2.0 | 4.0 | 0.00 | 0.05 | 0.01 | 98 | 1020.0 |
| 20260831124505 | 58 | 235 | 3.0 | 5.0 | 0.00 | 0.05 | 0.01 | 98 | 1020.0 |
| 20260831124224 | 58 | 235 | 1.0 | 5.0 | 0.00 | 0.05 | 0.01 | 98 | 1020.1 |
| 20260831123502 | 58 | 268 | 1.0 | 3.0 | 0.00 | 0.05 | 0.01 | 99 | 1020.1 |
| 20260831123001 | 58 | 268 | 1.0 | 3.0 | 0.00 | 0.05 | 0.01 | 98 | 1020.1 |
| 20260831122501 | 58 | 268 | 1.0 | 3.0 | 0.00 | 0.05 | 0.01 | 98 | 1020.1 |
| 20260831122001 | 57 | 268 | 2.0 | 3.0 | 0.00 | 0.05 | 0.01 | 98 | 1020.1 |
| 20260831121500 | 57 | 269 | 2.0 | 3.0 | 0.00 | 0.05 | 0.01 | 98 | 1020.1 |
| 20260831121001 | 57 | 275 | 2.0 | 3.0 | 0.00 | 0.05 | 0.01 | 98 | 1020.0 |
| 20260831120501 | 56 | 289 | 0.0 | 3.0 | 0.00 | 0.05 | 0.01 | 98 | 1019.9 |
| 20260831120233 | 56 | 313 | 0.0 | 1.0 | 0.00 | 0.05 | 0.01 | 98 | 1019.8 |
| 20260831115500 | 55 | 313 | 0.0 | 1.0 | 0.00 | 0.05 | 0.01 | 98 | 1019.8 |
| 20260831115001 | 55 | 313 | 0.0 | 2.0 | 0.00 | 0.05 | 0.01 | 98 | 1019.8 |
| 20260831114458 | 55 | 313 | 1.0 | 2.0 | 0.00 | 0.05 | 0.01 | 98 | 1019.7 |
| 20260831113459 | 55 | 313 | 1.0 | 2.0 | 0.00 | 0.05 | 0.01 | 98 | 1019.7 |
| 20260831112957 | 54 | 313 | 0.0 | 2.0 | 0.00 | 0.05 | 0.01 | 98 | 1019.7 |
| 20260831112452 | 54 | 313 | 0.0 | 1.0 | 0.00 | 0.05 | 0.01 | 98 | 1019.6 |
| 20260831111953 | 54 | 313 | 0.0 | 1.0 | 0.00 | 0.05 | 0.01 | 98 | 1019.6 |
| 20260831111452 | 54 | 313 | 0.0 | 1.0 | 0.00 | 0.05 | 0.01 | 98 | 1019.6 |
| 20260831110953 | 54 | 313 | 0.0 | 2.0 | 0.00 | 0.05 | 0.01 | 98 | 1019.5 |
| 20260831110453 | 55 | 313 | 1.0 | 3.0 | 0.00 | 0.05 | 0.01 | 98 | 1019.4 |
| 20260831105953 | 54 | 313 | 2.0 | 4.0 | 0.00 | 0.05 | 0.01 | 98 | 1019.4 |
| 20260831105452 | 55 | 5 | 2.0 | 6.0 | 0.00 | 0.05 | 0.01 | 98 | 1019.3 |
| 20260831104952 | 55 | 355 | 2.0 | 5.0 | 0.00 | 0.05 | 0.01 | 98 | 1019.2 |
| 20260831104453 | 55 | 315 | 2.0 | 5.0 | 0.00 | 0.05 | 0.01 | 98 | 1019.2 |
| 20260831103953 | 54 | 333 | 2.0 | 4.0 | 0.00 | 0.05 | 0.01 | 98 | 1019.1 |
| 20260831103453 | 54 | 9 | 2.0 | 4.0 | 0.00 | 0.05 | 0.01 | 98 | 1019.1 |
| 20260831102952 | 54 | 349 | 2.0 | 4.0 | 0.00 | 0.05 | 0.01 | 98 | 1019.0 |
| 20260831102453 | 53 | 301 | 1.0 | 3.0 | 0.00 | 0.05 | 0.01 | 98 | 1019.1 |
| 20260831101953 | 53 | 301 | 1.0 | 2.0 | 0.00 | 0.05 | 0.01 | 98 | 1019.0 |
| 20260831101452 | 53 | 301 | 1.0 | 2.0 | 0.00 | 0.05 | 0.01 | 98 | 1019.0 |
| 20260831100952 | 53 | 301 | 1.0 | 3.0 | 0.00 | 0.05 | 0.01 | 98 | 1019.0 |
| 20260831095952 | 53 | 300 | 1.0 | 4.0 | 0.00 | 0.05 | 0.01 | 98 | 1019.1 |
| 20260831095714 | 54 | 309 | 1.0 | 4.0 | 0.00 | 0.05 | 0.01 | 98 | 1019.0 |
| 20260831094953 | 54 | 303 | 1.0 | 3.0 | 0.00 | 0.05 | 0.01 | 98 | 1019.0 |
| 20260831094453 | 54 | 290 | 1.0 | 3.0 | 0.00 | 0.05 | 0.01 | 98 | 1018.9 |
| 20260831093954 | 55 | 290 | 1.0 | 4.0 | 0.00 | 0.05 | 0.01 | 98 | 1018.9 |
| 20260831093454 | 55 | 289 | 1.0 | 4.0 | 0.00 | 0.05 | 0.01 | 98 | 1018.9 |
| 20260831092954 | 54 | 288 | 1.0 | 3.0 | 0.00 | 0.05 | 0.01 | 98 | 1018.9 |
| 20260831092714 | 54 | 276 | 0.0 | 1.0 | 0.00 | 0.05 | 0.01 | 98 | 1018.9 |
| 20260831091954 | 54 | 276 | 1.0 | 2.0 | 0.00 | 0.05 | 0.01 | 98 | 1018.8 |
| 20260831091453 | 54 | 276 | 1.0 | 3.0 | 0.00 | 0.05 | 0.01 | 98 | 1018.8 |
| 20260831090953 | 55 | 277 | 2.0 | 3.0 | 0.01 | 0.05 | 0.01 | 98 | 1018.8 |
| 20260831090450 | 56 | 277 | 2.0 | 3.0 | 0.01 | 0.05 | 0.01 | 98 | 1018.9 |
| 20260831085950 | 55 | 277 | 1.0 | 3.0 | 0.01 | 0.05 | 0.01 | 98 | 1018.8 |
| 20260831085451 | 55 | 281 | 1.0 | 2.0 | 0.01 | 0.05 | 0.01 | 98 | 1018.7 |
| 20260831084949 | 55 | 281 | 1.0 | 2.0 | 0.01 | 0.05 | 0.01 | 98 | 1018.8 |
| 20260831084447 | 54 | 281 | 1.0 | 2.0 | 0.01 | 0.05 | 0.01 | 98 | 1018.8 |
| 20260831083942 | 54 | 281 | 1.0 | 2.0 | 0.01 | 0.05 | 0.01 | 98 | 1018.7 |
| 20260831083440 | 54 | 282 | 1.0 | 2.0 | 0.01 | 0.05 | 0.01 | 98 | 1018.7 |
| 20260831082939 | 54 | 282 | 1.0 | 2.0 | 0.01 | 0.05 | 0.01 | 98 | 1018.7 |
| 20260831082439 | 55 | 283 | 1.0 | 2.0 | 0.01 | 0.05 | 0.01 | 98 | 1018.7 |
| 20260831082149 | 55 | 282 | 1.0 | 2.0 | 0.01 | 0.05 | 0.01 | 98 | 1018.8 |
| 20260831081422 | 55 | 280 | 0.0 | 1.0 | 0.01 | 0.05 | 0.01 | 98 | 1018.7 |
| 20260831080918 | 55 | 280 | 1.0 | 3.0 | 0.00 | 0.04 | 0.00 | 98 | 1018.7 |
| 20260831080411 | 55 | 280 | 1.0 | 4.0 | 0.00 | 0.04 | 0.00 | 98 | 1018.7 |
| 20260831075901 | 55 | 279 | 1.0 | 4.0 | 0.00 | 0.04 | 0.00 | 98 | 1018.7 |
| 20260831075615 | 55 | 340 | 0.0 | 2.0 | 0.00 | 0.04 | 0.00 | 98 | 1018.7 |
| 20260831074849 | 55 | 340 | 0.0 | 2.0 | 0.00 | 0.04 | 0.00 | 97 | 1018.6 |
| 20260831074339 | 55 | 340 | 1.0 | 3.0 | 0.00 | 0.04 | 0.00 | 98 | 1018.6 |
| 20260831073833 | 56 | 340 | 1.0 | 3.0 | 0.00 | 0.04 | 0.00 | 97 | 1018.5 |
| 20260831073326 | 56 | 340 | 1.0 | 2.0 | 0.00 | 0.04 | 0.00 | 98 | 1018.6 |
| 20260831072816 | 56 | 340 | 1.0 | 4.0 | 0.00 | 0.04 | 0.00 | 98 | 1018.6 |
| 20260831072311 | 56 | 340 | 2.0 | 4.0 | 0.00 | 0.04 | 0.00 | 98 | 1018.7 |
| 20260831071804 | 57 | 355 | 2.0 | 4.0 | 0.00 | 0.04 | 0.00 | 98 | 1018.6 |
| 20260831071301 | 56 | 346 | 1.0 | 6.0 | 0.00 | 0.04 | 0.00 | 97 | 1018.7 |
| 20260831070757 | 56 | 323 | 1.0 | 6.0 | 0.00 | 0.04 | 0.00 | 97 | 1018.7 |
| 20260831070254 | 56 | 53 | 1.0 | 2.0 | 0.00 | 0.04 | 0.00 | 97 | 1018.7 |
| 20260831065754 | 56 | 53 | 1.0 | 2.0 | 0.00 | 0.04 | 0.00 | 97 | 1018.7 |
| 20260831065252 | 56 | 53 | 1.0 | 2.0 | 0.00 | 0.04 | 0.00 | 97 | 1018.6 |
| 20260831064750 | 56 | 53 | 0.0 | 1.0 | 0.00 | 0.04 | 0.00 | 97 | 1018.6 |
| 20260831064248 | 57 | 53 | 1.0 | 3.0 | 0.00 | 0.04 | 0.00 | 97 | 1018.2 |
| 20260831063749 | 57 | 53 | 1.0 | 3.0 | 0.00 | 0.04 | 0.00 | 97 | 1018.2 |
| 20260831063248 | 57 | 53 | 1.0 | 3.0 | 0.00 | 0.04 | 0.00 | 97 | 1018.2 |
| 20260831062750 | 57 | 53 | 1.0 | 3.0 | 0.00 | 0.04 | 0.00 | 97 | 1018.2 |
| 20260831062246 | 57 | 325 | 1.0 | 4.0 | 0.00 | 0.04 | 0.00 | 97 | 1018.2 |
| 20260831061744 | 57 | 319 | 1.0 | 4.0 | 0.00 | 0.04 | 0.00 | 97 | 1018.2 |
| 20260831061242 | 58 | 347 | 1.0 | 3.0 | 0.00 | 0.04 | 0.00 | 97 | 1018.2 |
| 20260831060740 | 58 | 348 | 1.0 | 4.0 | 0.00 | 0.04 | 0.00 | 96 | 1018.2 |
| 20260831060240 | 58 | 355 | 2.0 | 4.0 | 0.00 | 0.04 | 0.00 | 97 | 1018.2 |
| 20260831055740 | 59 | 34 | 2.0 | 4.0 | 0.00 | 0.04 | 0.00 | 97 | 1018.2 |
| 20260831055240 | 59 | 22 | 2.0 | 5.0 | 0.00 | 0.04 | 0.00 | 97 | 1018.4 |
| 20260831054958 | 59 | 0 | 2.0 | 5.0 | 0.00 | 0.04 | 0.00 | 97 | 1018.4 |
| 20260831054238 | 59 | 346 | 2.0 | 6.0 | 0.00 | 0.04 | 0.00 | 97 | 1018.2 |
| 20260831053738 | 59 | 294 | 2.0 | 7.0 | 0.00 | 0.04 | 0.00 | 97 | 1018.4 |
| 20260831053235 | 59 | 275 | 2.0 | 9.0 | 0.00 | 0.04 | 0.00 | 97 | 1018.2 |
| 20260831052734 | 59 | 277 | 2.0 | 10.0 | 0.00 | 0.04 | 0.00 | 97 | 1018.4 |
| 20260831052234 | 59 | 220 | 3.0 | 10.0 | 0.00 | 0.04 | 0.00 | 97 | 1018.4 |
| 20260831051734 | 59 | 235 | 3.0 | 10.0 | 0.00 | 0.04 | 0.00 | 97 | 1018.5 |
| 20260831051234 | 59 | 288 | 3.0 | 12.0 | 0.00 | 0.04 | 0.00 | 97 | 1018.5 |
| 20260831050734 | 59 | 323 | 3.0 | 12.0 | 0.00 | 0.04 | 0.00 | 97 | 1018.6 |
| 20260831050232 | 59 | 307 | 3.0 | 9.0 | 0.00 | 0.04 | 0.00 | 97 | 1018.6 |
| 20260831045732 | 59 | 222 | 3.0 | 8.0 | 0.00 | 0.04 | 0.00 | 97 | 1018.5 |
| 20260831045454 | 59 | 245 | 3.0 | 8.0 | 0.00 | 0.04 | 0.00 | 97 | 1018.6 |
| 20260831044732 | 60 | 269 | 3.0 | 9.0 | 0.00 | 0.04 | 0.00 | 97 | 1018.5 |
| 20260831044454 | 60 | 344 | 3.0 | 10.0 | 0.00 | 0.04 | 0.00 | 96 | 1018.6 |
| 20260831043726 | 60 | 241 | 3.0 | 10.0 | 0.00 | 0.04 | 0.00 | 96 | 1018.6 |
| 20260831043228 | 60 | 302 | 3.0 | 11.0 | 0.00 | 0.04 | 0.00 | 96 | 1018.6 |
| 20260831042725 | 60 | 281 | 3.0 | 11.0 | 0.00 | 0.04 | 0.00 | 96 | 1018.5 |
| 20260831042227 | 60 | 246 | 2.0 | 9.0 | 0.00 | 0.04 | 0.00 | 96 | 1018.5 |
| 20260831041724 | 60 | 214 | 3.0 | 9.0 | 0.00 | 0.04 | 0.00 | 96 | 1018.5 |
| 20260831041224 | 60 | 11 | 3.0 | 9.0 | 0.00 | 0.04 | 0.00 | 96 | 1018.5 |
| 20260831040724 | 60 | 298 | 3.0 | 9.0 | 0.00 | 0.04 | 0.00 | 96 | 1018.4 |
| 20260831040225 | 60 | 228 | 3.0 | 10.0 | 0.00 | 0.04 | 0.00 | 96 | 1018.4 |
| 20260831035946 | 60 | 229 | 4.0 | 10.0 | 0.00 | 0.04 | 0.04 | 97 | 1018.2 |
| 20260831035224 | 60 | 234 | 4.0 | 12.0 | 0.00 | 0.04 | 0.04 | 96 | 1018.1 |
| 20260831034724 | 60 | 281 | 4.0 | 12.0 | 0.00 | 0.04 | 0.04 | 96 | 1018.1 |
| 20260831034224 | 60 | 321 | 4.0 | 11.0 | 0.00 | 0.04 | 0.04 | 97 | 1018.0 |
| 20260831033724 | 60 | 237 | 5.0 | 11.0 | 0.00 | 0.04 | 0.04 | 97 | 1018.0 |
| 20260831033447 | 60 | 234 | 4.0 | 10.0 | 0.00 | 0.04 | 0.04 | 97 | 1018.1 |
| 20260831032728 | 60 | 236 | 4.0 | 10.0 | 0.00 | 0.04 | 0.04 | 97 | 1018.0 |
| 20260831032218 | 60 | 243 | 5.0 | 10.0 | 0.01 | 0.04 | 0.04 | 97 | 1018.1 |
| 20260831031711 | 60 | 241 | 5.0 | 10.0 | 0.01 | 0.04 | 0.04 | 97 | 1018.0 |
| 20260831031430 | 60 | 306 | 5.0 | 10.0 | 0.01 | 0.04 | 0.04 | 97 | 1018.0 |
| 20260831030655 | 60 | 236 | 4.0 | 9.0 | 0.01 | 0.04 | 0.04 | 97 | 1018.0 |
| 20260831030154 | 60 | 244 | 5.0 | 9.0 | 0.01 | 0.04 | 0.04 | 97 | 1017.9 |
| 20260831025926 | 60 | 246 | 4.0 | 10.0 | 0.01 | 0.04 | 0.04 | 97 | 1018.0 |
| 20260831025413 | 60 | 263 | 3.0 | 10.0 | 0.01 | 0.04 | 0.04 | 97 | 1018.2 |
| 20260831024654 | 60 | 270 | 3.0 | 7.0 | 0.01 | 0.04 | 0.04 | 97 | 1018.1 |
| 20260831024152 | 60 | 245 | 3.0 | 7.0 | 0.01 | 0.04 | 0.04 | 97 | 1018.2 |
| 20260831023913 | 60 | 240 | 2.0 | 5.0 | 0.01 | 0.04 | 0.04 | 97 | 1018.4 |
| 20260831023152 | 60 | 259 | 2.0 | 5.0 | 0.01 | 0.04 | 0.04 | 97 | 1018.5 |
| 20260831022653 | 60 | 286 | 2.0 | 7.0 | 0.01 | 0.04 | 0.04 | 97 | 1018.2 |
| 20260831022153 | 60 | 243 | 3.0 | 7.0 | 0.00 | 0.03 | 0.03 | 97 | 1018.1 |
| 20260831021652 | 60 | 236 | 3.0 | 8.0 | 0.00 | 0.03 | 0.03 | 97 | 1018.1 |
| 20260831021152 | 60 | 288 | 3.0 | 9.0 | 0.00 | 0.03 | 0.03 | 97 | 1018.0 |
| 20260831020650 | 60 | 284 | 3.0 | 11.0 | 0.00 | 0.03 | 0.03 | 96 | 1018.0 |
| 20260831020148 | 60 | 233 | 4.0 | 11.0 | 0.00 | 0.03 | 0.03 | 96 | 1017.9 |
| 20260831015648 | 60 | 254 | 4.0 | 8.0 | 0.00 | 0.03 | 0.03 | 96 | 1017.7 |
| 20260831015148 | 61 | 243 | 4.0 | 9.0 | 0.00 | 0.03 | 0.03 | 96 | 1017.8 |
| 20260831014641 | 61 | 231 | 4.0 | 9.0 | 0.00 | 0.03 | 0.03 | 96 | 1017.8 |
| 20260831014142 | 61 | 224 | 4.0 | 11.0 | 0.01 | 0.03 | 0.03 | 96 | 1017.9 |
| 20260831013642 | 61 | 254 | 4.0 | 11.0 | 0.01 | 0.03 | 0.03 | 96 | 1017.8 |
| 20260831013409 | 61 | 239 | 5.0 | 12.0 | 0.01 | 0.03 | 0.03 | 96 | 1017.8 |
| 20260831012640 | 61 | 226 | 5.0 | 12.0 | 0.01 | 0.03 | 0.03 | 96 | 1017.7 |
| 20260831012359 | 60 | 244 | 4.0 | 8.0 | 0.01 | 0.03 | 0.03 | 96 | 1017.6 |
| 20260831011638 | 60 | 274 | 4.0 | 8.0 | 0.02 | 0.03 | 0.03 | 96 | 1017.5 |
| 20260831011138 | 60 | 205 | 4.0 | 8.0 | 0.02 | 0.03 | 0.03 | 96 | 1017.6 |
| 20260831010638 | 60 | 236 | 4.0 | 9.0 | 0.03 | 0.03 | 0.03 | 96 | 1017.5 |
| 20260831010138 | 60 | 239 | 5.0 | 10.0 | 0.03 | 0.03 | 0.03 | 96 | 1017.3 |
| 20260831005638 | 60 | 242 | 5.0 | 11.0 | 0.03 | 0.03 | 0.03 | 96 | 1017.1 |
| 20260831005138 | 60 | 254 | 5.0 | 11.0 | 0.03 | 0.03 | 0.03 | 96 | 1017.1 |
| 20260831004856 | 61 | 233 | 4.0 | 10.0 | 0.03 | 0.03 | 0.03 | 96 | 1017.1 |
| 20260831004136 | 61 | 267 | 4.0 | 10.0 | 0.02 | 0.02 | 0.02 | 96 | 1017.3 |
| 20260831003637 | 61 | 250 | 4.0 | 9.0 | 0.02 | 0.02 | 0.02 | 96 | 1017.3 |
| 20260831003131 | 61 | 261 | 4.0 | 9.0 | 0.02 | 0.02 | 0.02 | 96 | 1017.2 |
| 20260831002628 | 61 | 243 | 3.0 | 7.0 | 0.02 | 0.02 | 0.02 | 95 | 1017.2 |
| 20260831001855 | 61 | 251 | 4.0 | 8.0 | 0.01 | 0.01 | 0.01 | 94 | 1017.1 |
| 20260831001128 | 61 | 239 | 4.0 | 9.0 | 0.01 | 0.01 | 0.01 | 94 | 1016.9 |
| 20260831000847 | 61 | 290 | 4.0 | 9.0 | 0.00 | 0.00 | 0.01 | 94 | 1016.9 |
| 20260831000128 | 61 | 250 | 4.0 | 9.0 | 0.00 | 0.00 | 0.00 | 93 | 1016.9 |
| 20260830235627 | 61 | 241 | 5.0 | 10.0 | 0.00 | 0.00 | 0.00 | 93 | 1016.7 |
| 20260830235346 | 62 | 241 | 6.0 | 12.0 | 0.00 | 0.00 | 0.00 | 92 | 1016.6 |
| 20260830234626 | 62 | 250 | 5.0 | 13.0 | 0.00 | 0.00 | 0.00 | 92 | 1016.7 |
| 20260830234125 | 62 | 277 | 5.0 | 13.0 | 0.00 | 0.00 | 0.00 | 91 | 1016.6 |
| 20260830233627 | 62 | 242 | 5.0 | 11.0 | 0.00 | 0.00 | 0.00 | 91 | 1016.7 |
| 20260830233126 | 62 | 253 | 4.0 | 11.0 | 0.00 | 0.00 | 0.00 | 91 | 1016.6 |
| 20260830232626 | 62 | 250 | 3.0 | 5.0 | 0.00 | 0.00 | 0.00 | 91 | 1016.6 |
| 20260830232125 | 62 | 246 | 3.0 | 8.0 | 0.00 | 0.00 | 0.00 | 91 | 1016.5 |
| 20260830231626 | 62 | 257 | 3.0 | 8.0 | 0.00 | 0.00 | 0.00 | 91 | 1016.4 |